User: anonymous   Login
Location: Chevoux
(46.3801°N, 4.9476°E)
Time: 11:37:40
(UTC+00:00)
Language:

A-11 Canister half - Orbit

View from above orbital plane
View from above orbital plane
View from above satellite
View from above satellite

Ground track
Ground track

The orbit data is extracted from the following two-line orbital elements,

1 00053U 60009E   21132.79809229 -.00000128  00000-0 -42573-3 0  9995
2 00053  47.2775 323.3384 0097928 335.1625  24.4470 12.17254682708686
Epoch (UTC): 12 May 2021 19:09:15
Eccentricity: 0.0097928
inclination: 47.2775°
perigee height: 1526 km
apogee height: 1682 km
right ascension of ascending node: 323.3384°
argument of perigee: 335.1625°
revolutions per day: 12.17254682
mean anomaly at epoch: 24.4470°
orbit number at epoch: 70868

The dashed part of the orbit path shows where the satellite is in the earth's shadow,  

DLR